Tracking 29892 objects as of 21-Nov-2024
HD Live streaming from Space Station
objects crossing your sky now

FENGYUN 1C DEB

Track FENGYUN 1C DEB now!
10-day predictions


NORAD ID: 30806
Int'l Code: 1999-025AUQ
Perigee: 810.1 km
Apogee: 1,207.6 km
Inclination: 99.1 °
Period: 105.2 minutes
Semi major axis: 7379 km
RCS: 0.0135 m2 (small)
Launch date: May 10, 1999
Source: People's Republic of China (PRC)
Launch site: Taiyaun Space Center, China (TSC)

Note: This is SATELLITE DEBRIS
Your satellite tracking list
Your tracking list is empty




NASA's NSSDC Master Catalog

Two Line Element Set (TLE):
1 30806U 99025AUQ 24326.07346345  .00001090  00000-0  10071-2 0  9992
2 30806  99.0719   8.9526 0269318  65.5939 326.3159 13.69392679884688
Source of the keplerian elements: AFSPC